Location: Colonia Mina de C?rbuni
(46.1667°N, 22.7167°E)
Time: 07:26:36
(UTC+00:00)

Tiros 1 - Pass Details

Date: 28 April 2024
Orbit: 624 x 657 km, 48.4° (Epoch: 26 May)

Event Time Altitude Azimuth Distance (km) Brightness Sun altitude
Rises 20:57:40 0° 259° (WSW) 2,947 10.7 -26.1°
Reaches altitude 10° 21:00:01 10° 261° (W) 2,033 9.8 -26.3°
Enters shadow 21:03:17 44° 271° (W) 880 7.9 -26.5°
